Weather History for McAlester, OK

Change the Weather History Date:

Saturday, April 12, 2014

  Actual Average Record
Temperature  
Mean Temperature 72 °F -  
Max Temperature 82 °F 74 °F 92 °F (1972)
Min Temperature 64 °F 53 °F 27 °F (1957)
Cooling Degree Days 8    
Growing Degree Days 22 (Base 50)    
Moisture  
Dew Point 57 °F    
Average Humidity 61    
Maximum Humidity 78    
Minimum Humidity 42    
Precipitation  
Precipitation 0.00 in - - ()
Sea Level Pressure  
Sea Level Pressure 29.82 in    
Wind  
Wind Speed 11 mph (South)    
Max Wind Speed 18 mph    
Max Gust Speed 33 mph    
Visibility 10 miles    
Events      
Averages and records for this station are not official NWS values.
T = Trace of Precipitation, MM = Missing Value Source: NWS Daily Summary

Daily Weather History Graph

Daily Weather History Graph

Search for Another Location

Airport:

Trip Planner

Search our weather history database for the weather conditions in past years. The results will help you decide how hot, cold, wet, or windy it might be!

Date:

Astronomy

Apr. 12, 2014 Rise Set
Actual Time 6:55 AM CDT 7:53 PM CDT
Civil Twilight 6:29 AM CDT 8:19 PM CDT
Nautical Twilight 5:58 AM CDT 8:49 PM CDT
Astronomical Twilight 5:27 AM CDT 9:21 PM CDT
Moon 5:37 PM CDT (4/12) 5:16 AM CDT (4/12)
Length of Visible Light 13h 49m
Length of Day
12h 58m
Waxing Gibbous, 93% of the Moon is Illuminated
Apr 12
Waxing Gibbous
Apr 15
Full
Apr 22
Last Quarter
Apr 29
New
May 6
First Quarter

Hourly Weather History & Observations

Time (CDT) Temp. Heat Index Dew Point Humidity Pressure Visibility Wind Dir Wind Speed Gust Speed Precip Events Conditions
12:53 AM 64.9 °F - 57.0 °F 75% 29.91 in 10.0 mi SE 4.6 mph - N/A   Scattered Clouds
1:53 AM 66.0 °F - 57.0 °F 73% 29.89 in 10.0 mi South 6.9 mph - N/A   Clear
2:53 AM 68.0 °F - 57.9 °F 70% 29.88 in 10.0 mi South 10.4 mph 19.6 mph N/A   Clear
3:53 AM 66.9 °F - 57.9 °F 73% 29.87 in 10.0 mi South 10.4 mph 20.7 mph N/A   Clear
4:53 AM 66.0 °F - 57.9 °F 75% 29.88 in 10.0 mi South 10.4 mph 23.0 mph N/A   Partly Cloudy
5:53 AM 64.9 °F - 57.0 °F 75% 29.87 in 10.0 mi South 12.7 mph 23.0 mph N/A   Mostly Cloudy
6:29 AM 64.0 °F - 57.0 °F 78% 29.89 in 10.0 mi South 11.5 mph 23.0 mph N/A   Mostly Cloudy
6:53 AM 64.0 °F - 57.0 °F 78% 29.88 in 10.0 mi South 15.0 mph 23.0 mph N/A   Mostly Cloudy
7:53 AM 64.9 °F - 57.0 °F 75% 29.89 in 10.0 mi South 16.1 mph 25.3 mph N/A   Mostly Cloudy
8:53 AM 66.0 °F - 57.0 °F 73% 29.90 in 10.0 mi South 16.1 mph 28.8 mph N/A   Mostly Cloudy
9:53 AM 66.0 °F - 57.0 °F 73% 29.91 in 10.0 mi South 16.1 mph 26.5 mph N/A   Overcast
10:53 AM 69.1 °F - 57.9 °F 68% 29.90 in 10.0 mi South 15.0 mph 26.5 mph N/A   Mostly Cloudy
11:53 AM 72.0 °F - 57.9 °F 61% 29.88 in 10.0 mi South 12.7 mph 25.3 mph N/A   Mostly Cloudy
12:05 PM 73.0 °F - 57.9 °F 59% 29.89 in 10.0 mi South 16.1 mph 27.6 mph N/A   Scattered Clouds
12:53 PM 77.0 °F - 57.0 °F 50% 29.83 in 10.0 mi South 15.0 mph 25.3 mph N/A   Clear
1:53 PM 79.0 °F - 57.0 °F 47% 29.80 in 10.0 mi South 12.7 mph 28.8 mph N/A   Partly Cloudy
2:53 PM 80.1 °F 80.1 °F 55.0 °F 42% 29.76 in 10.0 mi South 18.4 mph 28.8 mph N/A   Clear
3:53 PM 80.1 °F 80.2 °F 55.9 °F 43% 29.75 in 10.0 mi South 18.4 mph 32.2 mph N/A   Clear
4:53 PM 81.0 °F 81.0 °F 57.0 °F 44% 29.73 in 10.0 mi South 16.1 mph 27.6 mph N/A   Clear
5:53 PM 80.1 °F 80.1 °F 55.0 °F 42% 29.72 in 10.0 mi South 16.1 mph 33.4 mph N/A   Clear
6:53 PM 78.1 °F - 55.9 °F 46% 29.72 in 10.0 mi South 11.5 mph 26.5 mph N/A   Clear
7:53 PM 75.9 °F - 57.0 °F 52% 29.73 in 10.0 mi South 11.5 mph 21.9 mph N/A   Mostly Cloudy
8:53 PM 75.9 °F - 57.9 °F 54% 29.73 in 10.0 mi South 13.8 mph 20.7 mph N/A   Clear
9:53 PM 75.0 °F - 57.9 °F 55% 29.73 in 10.0 mi South 10.4 mph 26.5 mph N/A   Mostly Cloudy
10:53 PM 75.0 °F - 57.9 °F 55% 29.72 in 10.0 mi South 10.4 mph 24.2 mph N/A   Partly Cloudy
11:53 PM 73.9 °F - 59.0 °F 59% 29.71 in 10.0 mi South 17.3 mph 27.6 mph N/A   Partly Cloudy